Volver al catálogo

COSMOS 2192

ActivoMilitarLEO
NORAD 21981·PAYLOAD·🇷🇺 Russia

Lanzado Jun 3, 1992 desde Plesetsk Cosmodrome

Loading…

Próximos Pases (próximas 24 horas)

TLE

ActualizadoSource: Space-Track

Época: Sep 14, 2026, 12:29 UTC

1 21981U 92030F   26257.52048711 -.00000023  00000-0 -48103-4 0  9992
2 21981  73.9998 271.1121 0009484 243.1253 190.8396 12.46695531560243

Sigue COSMOS 2192 en tiempo real con AllMySat

Download on the App Store